TimeCST,TemperatureF,Dew PointF,Humidity,Sea Level PressureIn,VisibilityMPH,Wind Direction,Wind SpeedMPH,Gust SpeedMPH,PrecipitationIn,Events,Conditions,WindDirDegrees,DateUTC
12:53 AM,64.9,55.9,73,29.83,10.0,South,15.0,-,N/A,,Overcast,170,2011-11-26 06:53:00
1:53 AM,66.0,55.9,70,29.81,10.0,South,15.0,25.3,0.00,,Overcast,170,2011-11-26 07:53:00
2:53 AM,63.0,59.0,87,29.81,10.0,South,17.3,25.3,0.01,Rain,Light Rain,180,2011-11-26 08:53:00
3:53 AM,62.1,59.0,90,29.80,10.0,South,10.4,-,0.01,Rain,Light Rain,180,2011-11-26 09:53:00
4:53 AM,61.0,57.9,90,29.80,10.0,South,13.8,-,0.03,Rain,Light Rain,170,2011-11-26 10:53:00
5:28 AM,60.8,59.0,94,29.80,10.0,South,11.5,19.6,0.01,Rain,Light Rain,180,2011-11-26 11:28:00
5:49 AM,62.6,59.0,88,29.79,10.0,South,16.1,-,0.01,,Mostly Cloudy,170,2011-11-26 11:49:00
5:53 AM,62.1,59.0,90,29.78,10.0,South,15.0,-,0.01,,Mostly Cloudy,170,2011-11-26 11:53:00
6:03 AM,60.8,59.0,94,29.80,10.0,South,16.1,-,N/A,,Mostly Cloudy,180,2011-11-26 12:03:00
6:37 AM,62.6,59.0,88,29.81,10.0,South,16.1,-,N/A,,Mostly Cloudy,170,2011-11-26 12:37:00
6:53 AM,61.0,59.0,93,29.79,10.0,SSW,15.0,-,N/A,,Mostly Cloudy,200,2011-11-26 12:53:00
7:19 AM,60.8,59.0,94,29.82,10.0,South,16.1,-,N/A,,Overcast,190,2011-11-26 13:19:00
7:47 AM,60.8,59.0,94,29.83,10.0,SSW,10.4,-,N/A,,Overcast,200,2011-11-26 13:47:00
7:53 AM,61.0,59.0,93,29.82,10.0,SSW,13.8,-,N/A,,Overcast,210,2011-11-26 13:53:00
8:01 AM,62.6,59.0,88,29.84,10.0,SSW,10.4,-,N/A,,Mostly Cloudy,210,2011-11-26 14:01:00
8:53 AM,62.1,57.9,86,29.85,10.0,WSW,9.2,-,N/A,,Mostly Cloudy,240,2011-11-26 14:53:00
9:53 AM,61.0,48.9,64,29.88,10.0,West,16.1,-,N/A,,Mostly Cloudy,280,2011-11-26 15:53:00
10:53 AM,62.1,50.0,65,29.89,10.0,WNW,21.9,26.5,N/A,,Overcast,290,2011-11-26 16:53:00
11:03 AM,60.8,51.8,72,29.92,10.0,NW,23.0,27.6,N/A,,Overcast,310,2011-11-26 17:03:00
11:53 AM,57.0,48.0,72,29.93,10.0,NW,32.2,39.1,N/A,,Overcast,320,2011-11-26 17:53:00
12:53 PM,54.0,41.0,62,29.95,10.0,NW,36.8,46.0,N/A,,Overcast,320,2011-11-26 18:53:00
1:19 PM,53.6,39.2,58,29.96,10.0,NW,36.8,48.3,N/A,,Overcast,320,2011-11-26 19:19:00
1:53 PM,52.0,39.9,63,29.98,10.0,NNW,27.6,38.0,N/A,,Overcast,330,2011-11-26 19:53:00
2:53 PM,50.0,39.0,66,30.02,10.0,NNW,26.5,39.1,N/A,,Overcast,330,2011-11-26 20:53:00
3:08 PM,50.0,39.2,66,30.03,10.0,NNW,26.5,40.3,N/A,,Overcast,330,2011-11-26 21:08:00
3:53 PM,50.0,39.9,68,30.05,10.0,NNW,27.6,34.5,0.00,,Overcast,340,2011-11-26 21:53:00
4:04 PM,51.8,39.2,62,30.05,10.0,NNW,31.1,36.8,N/A,,Overcast,340,2011-11-26 22:04:00
4:53 PM,51.1,37.9,61,30.07,10.0,NNW,26.5,36.8,N/A,,Overcast,340,2011-11-26 22:53:00
5:53 PM,51.1,37.9,61,30.11,10.0,NNW,19.6,25.3,N/A,,Overcast,330,2011-11-26 23:53:00
6:53 PM,51.1,37.0,59,30.13,10.0,NNW,24.2,33.4,N/A,,Overcast,330,2011-11-27 00:53:00
7:53 PM,51.8,37.4,58,30.17,10.0,NNW,18.4,-,N/A,,Overcast,330,2011-11-27 01:53:00
8:53 PM,52.0,35.1,53,30.16,10.0,NNW,13.8,24.2,N/A,,Overcast,330,2011-11-27 02:53:00
9:53 PM,51.8,33.8,50,30.18,10.0,NNW,18.4,26.5,N/A,,Mostly Cloudy,330,2011-11-27 03:53:00
10:53 PM,50.0,30.9,48,30.19,10.0,NNW,20.7,-,N/A,,Mostly Cloudy,330,2011-11-27 04:53:00
11:53 PM,48.9,26.1,41,30.20,10.0,NNW,21.9,31.1,N/A,,Clear,340,2011-11-27 05:53:00